Precipitable_Water
0.12 0.12 0.12 0.12 0.12 0.12 0.12 0.12 0.12 0.12 0.12 0.12 0.12 0.12 0.12 0.12 0.12 0.12 0.12 0.12 0.12 0.12 0.12 0.14 0.14 0.14 0.14 0.14 0.16 0.16 0.18 0.18 0.16 0.16 0.18 0.18 0.20 0.20 0.20 0.20 0.20 0.20 0.20 0.20 0.20 0.20 0.20 0.18 0.18 0.18 0.18 0.18 0.16 0.16 0.16 0.16 0.16 0.16 0.18 0.18 0.18 0.18 0.18 0.18 0.18 0.18 0.18 0.18 0.18
0.12 0.12 0.12 0.12 0.12 0.12 0.12 0.12 0.12 0.12 0.12 0.12 0.12 0.12 0.12 0.12 0.12 0.12 0.12 0.12 0.12 0.12 0.14 0.14 0.14 0.14 0.14 0.14 0.16 0.16 0.16 0.16 0.16 0.16 0.18 0.18 0.20 0.20 0.20 0.20 0.20 0.20 0.20 0.20 0.20 0.20 0.20 0.20 0.18 0.18 0.18 0.18 0.18 0.18 0.18 0.18 0.18 0.18 0.18 0.18 0.18 0.18 0.18 0.18 0.18 0.18 0.20 0.20 0.20
0.12 0.12 0.12 0.12 0.12 0.12 0.12 0.12 0.12 0.12 0.12 0.12 0.12 0.12 0.12 0.12 0.12 0.12 0.12 0.12 0.12 0.12 0.14 0.14 0.14 0.14 0.14 0.14 0.16 0.16 0.16 0.16 0.16 0.16 0.18 0.18 0.20 0.20 0.20 0.20 0.22 0.22 0.22 0.22 0.20 0.20 0.20 0.20 0.20 0.20 0.18 0.18 0.18 0.18 0.18 0.18 0.18 0.18 0.18 0.18 0.18 0.20 0.20 0.20 0.20 0.20 0.20 0.20 0.20
0.12 0.12 0.12 0.12 0.12 0.12 0.12 0.12 0.12 0.12 0.12 0.12 0.12 0.12 0.12 0.12 0.12 0.12 0.12 0.12 0.12 0.12 0.12 0.14 0.14 0.14 0.14 0.14 0.14 0.16 0.16 0.16 0.16 0.16 0.16 0.18 0.18 0.20 0.20 0.20 0.22 0.22 0.22 0.22 0.22 0.20 0.20 0.22 0.20 0.20 0.20 0.20 0.18 0.18 0.18 0.18 0.18 0.18 0.18 0.20 0.20 0.20 0.20 0.20 0.20 0.20 0.20 0.20 0.22
0.12 0.12 0.12 0.12 0.12 0.12 0.12 0.12 0.12 0.12 0.14 0.14 0.14 0.14 0.14 0.14 0.14 0.14 0.14 0.12 0.12 0.12 0.12 0.14 0.14 0.14 0.14 0.14 0.14 0.16 0.16 0.16 0.16 0.16 0.16 0.18 0.18 0.20 0.20 0.20 0.22 0.22 0.22 0.22 0.22 0.22 0.22 0.22 0.22 0.20 0.20 0.20 0.20 0.20 0.20 0.20 0.20 0.20 0.20 0.20 0.20 0.20 0.20 0.20 0.20 0.22 0.22 0.22 0.22
0.12 0.12 0.12 0.12 0.12 0.14 0.14 0.14 0.14 0.14 0.14 0.14 0.14 0.14 0.12 0.14 0.14 0.14 0.12 0.12 0.12 0.12 0.12 0.14 0.14 0.14 0.14 0.14 0.14 0.16 0.16 0.16 0.14 0.16 0.16 0.18 0.18 0.20 0.20 0.20 0.22 0.22 0.22 0.24 0.24 0.22 0.22 0.22 0.22 0.22 0.22 0.20 0.20 0.20 0.20 0.20 0.20 0.20 0.20 0.20 0.20 0.22 0.22 0.22 0.22 0.22 0.22 0.22 0.22
0.12 0.12 0.12 0.14 0.14 0.14 0.14 0.14 0.14 0.14 0.14 0.14 0.14 0.14 0.12 0.14 0.14 0.14 0.12 0.12 0.12 0.12 0.12 0.14 0.14 0.14 0.14 0.14 0.14 0.14 0.16 0.16 0.14 0.16 0.16 0.18 0.18 0.20 0.20 0.20 0.20 0.22 0.22 0.24 0.24 0.24 0.24 0.22 0.22 0.22 0.22 0.22 0.22 0.22 0.22 0.22 0.20 0.20 0.20 0.20 0.22 0.22 0.22 0.22 0.22 0.22 0.22 0.22 0.22
0.14 0.14 0.14 0.14 0.14 0.14 0.14 0.14 0.14 0.14 0.14 0.14 0.14 0.14 0.14 0.14 0.14 0.14 0.14 0.12 0.12 0.12 0.12 0.12 0.12 0.12 0.12 0.12 0.14 0.14 0.16 0.16 0.14 0.16 0.16 0.18 0.18 0.20 0.20 0.20 0.20 0.22 0.22 0.24 0.24 0.24 0.24 0.24 0.22 0.22 0.22 0.22 0.22 0.22 0.22 0.22 0.22 0.22 0.22 0.22 0.22 0.22 0.22 0.22 0.22 0.22 0.22 0.22 0.22
0.14 0.14 0.14 0.14 0.14 0.14 0.14 0.14 0.14 0.14 0.14 0.14 0.14 0.14 0.14 0.14 0.14 0.14 0.14 0.12 0.12 0.12 0.12 0.12 0.12 0.12 0.12 0.12 0.12 0.14 0.16 0.16 0.16 0.16 0.16 0.16 0.18 0.18 0.20 0.20 0.20 0.22 0.22 0.24 0.24 0.24 0.24 0.24 0.22 0.22 0.22 0.22 0.22 0.22 0.22 0.22 0.22 0.22 0.22 0.22 0.22 0.22 0.22 0.22 0.22 0.22 0.22 0.22 0.22
0.14 0.14 0.14 0.14 0.14 0.14 0.14 0.14 0.14 0.14 0.14 0.14 0.14 0.14 0.14 0.14 0.14 0.14 0.14 0.14 0.14 0.12 0.12 0.12 0.12 0.12 0.12 0.12 0.12 0.14 0.16 0.16 0.16 0.16 0.16 0.16 0.18 0.18 0.18 0.20 0.20 0.22 0.22 0.22 0.24 0.24 0.24 0.24 0.24 0.22 0.22 0.22 0.22 0.22 0.22 0.22 0.22 0.22 0.22 0.22 0.22 0.22 0.22 0.22 0.22 0.22 0.22 0.24 0.24
0.14 0.14 0.14 0.14 0.14 0.14 0.14 0.14 0.14 0.14 0.14 0.14 0.14 0.14 0.14 0.14 0.14 0.14 0.14 0.14 0.14 0.12 0.12 0.12 0.12 0.12 0.12 0.12 0.12 0.14 0.14 0.16 0.16 0.16 0.16 0.16 0.18 0.18 0.18 0.20 0.20 0.22 0.22 0.20 0.22 0.24 0.24 0.24 0.24 0.24 0.24 0.24 0.24 0.22 0.22 0.22 0.22 0.22 0.22 0.22 0.22 0.22 0.22 0.22 0.24 0.24 0.24 0.24 0.24
0.14 0.14 0.14 0.14 0.14 0.14 0.14 0.14 0.14 0.14 0.14 0.14 0.14 0.14 0.14 0.14 0.14 0.14 0.14 0.14 0.14 0.12 0.12 0.12 0.12 0.12 0.12 0.12 0.12 0.14 0.14 0.16 0.16 0.16 0.16 0.16 0.16 0.18 0.18 0.18 0.20 0.20 0.20 0.18 0.22 0.22 0.24 0.24 0.24 0.24 0.24 0.24 0.24 0.24 0.22 0.22 0.22 0.22 0.22 0.22 0.22 0.22 0.22 0.22 0.24 0.24 0.24 0.24 0.24
0.14 0.14 0.14 0.14 0.14 0.14 0.14 0.14 0.14 0.14 0.14 0.14 0.14 0.14 0.14 0.14 0.14 0.14 0.14 0.14 0.14 0.12 0.12 0.12 0.12 0.12 0.12 0.12 0.12 0.12 0.14 0.16 0.16 0.16 0.16 0.16 0.16 0.16 0.18 0.18 0.20 0.20 0.20 0.16 0.20 0.22 0.24 0.24 0.24 0.24 0.22 0.24 0.24 0.24 0.24 0.24 0.22 0.22 0.22 0.22 0.22 0.22 0.22 0.22 0.24 0.24 0.24 0.24 0.24
0.14 0.14 0.14 0.14 0.14 0.14 0.14 0.14 0.14 0.14 0.14 0.14 0.14 0.14 0.14 0.14 0.14 0.14 0.14 0.14 0.14 0.14 0.12 0.12 0.12 0.12 0.12 0.12 0.12 0.12 0.14 0.16 0.16 0.16 0.16 0.16 0.16 0.16 0.16 0.18 0.18 0.20 0.18 0.14 0.18 0.20 0.22 0.22 0.24 0.24 0.22 0.22 0.22 0.22 0.24 0.22 0.22 0.22 0.22 0.22 0.22 0.22 0.22 0.22 0.24 0.24 0.24 0.24 0.24
0.14 0.14 0.14 0.14 0.14 0.14 0.14 0.14 0.14 0.14 0.14 0.14 0.14 0.14 0.14 0.16 0.16 0.14 0.14 0.14 0.14 0.14 0.12 0.12 0.12 0.12 0.12 0.12 0.12 0.12 0.14 0.14 0.16 0.16 0.16 0.16 0.16 0.16 0.16 0.16 0.18 0.18 0.18 0.12 0.14 0.16 0.20 0.22 0.22 0.22 0.22 0.22 0.22 0.22 0.22 0.22 0.22 0.22 0.22 0.22 0.22 0.22 0.22 0.22 0.22 0.22 0.22 0.22 0.22
0.14 0.14 0.14 0.14 0.14 0.14 0.16 0.16 0.16 0.14 0.14 0.14 0.14 0.14 0.16 0.16 0.16 0.16 0.14 0.14 0.14 0.14 0.12 0.12 0.12 0.12 0.12 0.12 0.12 0.12 0.12 0.14 0.16 0.16 0.16 0.16 0.16 0.16 0.16 0.18 0.18 0.18 0.16 0.10 0.10 0.12 0.16 0.20 0.20 0.22 0.22 0.22 0.22 0.22 0.22 0.22 0.22 0.22 0.22 0.22 0.22 0.22 0.22 0.22 0.22 0.22 0.22 0.22 0.22
0.14 0.14 0.14 0.14 0.14 0.14 0.16 0.16 0.16 0.16 0.14 0.14 0.14 0.16 0.16 0.16 0.16 0.16 0.16 0.14 0.14 0.14 0.12 0.12 0.12 0.12 0.12 0.12 0.12 0.12 0.12 0.12 0.14 0.16 0.16 0.16 0.16 0.16 0.18 0.18 0.18 0.18 0.16 0.10 0.09 0.10 0.12 0.14 0.18 0.18 0.20 0.20 0.20 0.20 0.20 0.20 0.20 0.20 0.20 0.20 0.20 0.20 0.22 0.22 0.20 0.20 0.20 0.20 0.22
0.14 0.14 0.14 0.14 0.14 0.16 0.16 0.16 0.16 0.16 0.14 0.14 0.14 0.16 0.16 0.16 0.16 0.16 0.16 0.14 0.14 0.14 0.14 0.12 0.14 0.14 0.12 0.12 0.12 0.12 0.12 0.12 0.12 0.14 0.16 0.16 0.16 0.18 0.18 0.18 0.18 0.18 0.18 0.16 0.10 0.09 0.09 0.10 0.12 0.14 0.16 0.18 0.16 0.18 0.18 0.18 0.18 0.20 0.20 0.20 0.20 0.20 0.20 0.20 0.20 0.20 0.20 0.20 0.20
0.14 0.14 0.14 0.14 0.16 0.16 0.16 0.16 0.16 0.16 0.14 0.14 0.14 0.16 0.16 0.16 0.16 0.16 0.16 0.14 0.14 0.14 0.14 0.14 0.14 0.14 0.12 0.12 0.12 0.12 0.12 0.12 0.12 0.14 0.14 0.16 0.16 0.18 0.18 0.18 0.18 0.18 0.20 0.20 0.12 0.10 0.09 0.09 0.10 0.10 0.12 0.14 0.12 0.12 0.14 0.16 0.16 0.16 0.18 0.18 0.18 0.18 0.18 0.18 0.18 0.20 0.20 0.20 0.20
0.14 0.14 0.14 0.16 0.16 0.16 0.16 0.16 0.16 0.16 0.16 0.14 0.14 0.16 0.16 0.16 0.16 0.16 0.16 0.14 0.14 0.14 0.14 0.14 0.14 0.14 0.12 0.12 0.12 0.12 0.12 0.12 0.12 0.12 0.12 0.14 0.16 0.18 0.18 0.18 0.20 0.20 0.20 0.20 0.16 0.10 0.09 0.09 0.09 0.09 0.10 0.10 0.09 0.10 0.10 0.12 0.12 0.14 0.14 0.14 0.16 0.16 0.16 0.16 0.16 0.18 0.18 0.18 0.20
0.14 0.14 0.16 0.16 0.16 0.16 0.16 0.16 0.16 0.16 0.16 0.16 0.16 0.16 0.16 0.16 0.16 0.16 0.16 0.14 0.14 0.14 0.14 0.14 0.14 0.14 0.14 0.12 0.12 0.12 0.12 0.12 0.12 0.12 0.12 0.12 0.14 0.16 0.18 0.18 0.20 0.20 0.20 0.20 0.16 0.12 0.10 0.09 0.09 0.09 0.09 0.09 0.09 0.09 0.09 0.10 0.10 0.10 0.12 0.12 0.12 0.14 0.14 0.12 0.12 0.14 0.14 0.16 0.18
0.16 0.16 0.16 0.16 0.16 0.16 0.16 0.16 0.16 0.16 0.16 0.16 0.16 0.16 0.16 0.16 0.16 0.16 0.16 0.16 0.14 0.14 0.14 0.14 0.14 0.14 0.14 0.14 0.12 0.12 0.12 0.12 0.12 0.12 0.12 0.12 0.12 0.14 0.16 0.18 0.20 0.20 0.20 0.20 0.18 0.14 0.12 0.09 0.09 0.09 0.09 0.09 0.09 0.09 0.09 0.09 0.09 0.09 0.10 0.10 0.10 0.10 0.10 0.10 0.10 0.10 0.12 0.12 0.14
0.16 0.16 0.16 0.16 0.16 0.16 0.16 0.16 0.16 0.16 0.16 0.16 0.16 0.16 0.16 0.16 0.16 0.16 0.16 0.16 0.16 0.14 0.14 0.14 0.14 0.14 0.14 0.14 0.12 0.12 0.12 0.12 0.12 0.12 0.12 0.12 0.12 0.14 0.14 0.18 0.18 0.20 0.20 0.22 0.20 0.18 0.14 0.10 0.09 0.09 0.09 0.09 0.09 0.09 0.09 0.09 0.09 0.09 0.09 0.09 0.09 0.09 0.09 0.09 0.09 0.09 0.09 0.10 0.12
0.16 0.16 0.16 0.16 0.16 0.16 0.16 0.16 0.16 0.16 0.16 0.16 0.16 0.16 0.16 0.16 0.16 0.16 0.16 0.16 0.16 0.14 0.14 0.14 0.14 0.14 0.14 0.14 0.14 0.12 0.12 0.12 0.12 0.12 0.12 0.12 0.12 0.12 0.14 0.16 0.18 0.20 0.22 0.22 0.22 0.20 0.18 0.14 0.12 0.10 0.10 0.09 0.09 0.09 0.09 0.09 0.09 0.09 0.09 0.09 0.09 0.09 0.09 0.09 0.09 0.09 0.09 0.09 0.10
0.16 0.16 0.16 0.16 0.16 0.16 0.16 0.16 0.16 0.16 0.16 0.16 0.16 0.16 0.16 0.16 0.16 0.16 0.16 0.16 0.16 0.16 0.14 0.14 0.14 0.14 0.14 0.14 0.14 0.14 0.12 0.12 0.12 0.12 0.12 0.12 0.12 0.12 0.12 0.14 0.16 0.18 0.22 0.24 0.24 0.22 0.20 0.18 0.14 0.12 0.12 0.10 0.09 0.09 0.09 0.09 0.09 0.09 0.09 0.09 0.09 0.09 0.09 0.09 0.07 0.07 0.09 0.09 0.09
0.14 0.14 0.14 0.16 0.16 0.16 0.16 0.16 0.16 0.16 0.16 0.16 0.16 0.16 0.16 0.16 0.16 0.16 0.16 0.16 0.16 0.16 0.16 0.14 0.14 0.14 0.14 0.14 0.14 0.14 0.12 0.12 0.12 0.12 0.10 0.10 0.10 0.12 0.12 0.12 0.14 0.16 0.20 0.24 0.26 0.24 0.22 0.20 0.18 0.16 0.14 0.10 0.10 0.09 0.09 0.09 0.09 0.09 0.09 0.09 0.09 0.09 0.09 0.09 0.07 0.07 0.09 0.09 0.09
0.14 0.14 0.14 0.14 0.16 0.16 0.16 0.16 0.16 0.16 0.16 0.16 0.16 0.16 0.16 0.16 0.16 0.16 0.16 0.16 0.16 0.16 0.16 0.16 0.16 0.16 0.16 0.14 0.14 0.14 0.14 0.12 0.12 0.12 0.12 0.10 0.10 0.10 0.10 0.10 0.12 0.12 0.16 0.24 0.26 0.24 0.24 0.22 0.20 0.18 0.16 0.14 0.12 0.10 0.09 0.09 0.09 0.09 0.09 0.09 0.09 0.09 0.09 0.09 0.09 0.09 0.09 0.09 0.09
0.14 0.14 0.14 0.14 0.14 0.16 0.16 0.16 0.16 0.16 0.16 0.16 0.16 0.16 0.16 0.16 0.16 0.16 0.16 0.16 0.16 0.16 0.16 0.16 0.16 0.16 0.16 0.14 0.14 0.14 0.14 0.14 0.12 0.12 0.12 0.10 0.10 0.10 0.10 0.10 0.10 0.10 0.12 0.20 0.24 0.26 0.24 0.24 0.22 0.20 0.18 0.16 0.14 0.12 0.10 0.09 0.09 0.09 0.09 0.09 0.09 0.09 0.09 0.09 0.09 0.09 0.09 0.09 0.09
0.14 0.14 0.14 0.14 0.14 0.14 0.16 0.16 0.16 0.16 0.16 0.16 0.16 0.16 0.16 0.16 0.16 0.16 0.16 0.16 0.16 0.16 0.16 0.16 0.16 0.16 0.16 0.14 0.14 0.14 0.14 0.14 0.14 0.14 0.12 0.12 0.10 0.10 0.10 0.10 0.10 0.10 0.10 0.14 0.22 0.24 0.26 0.24 0.22 0.20 0.18 0.16 0.14 0.14 0.12 0.10 0.09 0.09 0.09 0.09 0.09 0.09 0.09 0.09 0.09 0.09 0.09 0.09 0.09
0.14 0.14 0.14 0.14 0.14 0.14 0.16 0.16 0.16 0.16 0.16 0.16 0.16 0.16 0.16 0.16 0.16 0.16 0.16 0.16 0.16 0.16 0.16 0.16 0.16 0.16 0.16 0.16 0.16 0.14 0.14 0.14 0.14 0.14 0.14 0.12 0.12 0.10 0.10 0.10 0.10 0.10 0.10 0.10 0.16 0.22 0.24 0.24 0.24 0.22 0.20 0.18 0.16 0.14 0.12 0.10 0.09 0.09 0.09 0.09 0.09 0.09 0.09 0.09 0.09 0.09 0.09 0.09 0.09
0.14 0.14 0.14 0.14 0.14 0.14 0.16 0.16 0.16 0.16 0.16 0.16 0.16 0.16 0.16 0.16 0.16 0.16 0.16 0.18 0.18 0.18 0.18 0.16 0.16 0.16 0.16 0.16 0.16 0.16 0.14 0.14 0.14 0.14 0.14 0.14 0.12 0.12 0.10 0.10 0.10 0.10 0.10 0.12 0.12 0.16 0.22 0.24 0.24 0.22 0.20 0.18 0.16 0.14 0.12 0.10 0.10 0.09 0.09 0.09 0.09 0.09 0.09 0.09 0.09 0.09 0.09 0.09 0.09
0.14 0.14 0.14 0.14 0.14 0.16 0.16 0.16 0.16 0.18 0.18 0.16 0.16 0.16 0.16 0.16 0.16 0.16 0.18 0.18 0.18 0.18 0.16 0.16 0.16 0.16 0.16 0.16 0.16 0.16 0.16 0.16 0.16 0.14 0.14 0.14 0.12 0.12 0.12 0.12 0.12 0.12 0.12 0.12 0.14 0.14 0.16 0.24 0.24 0.22 0.20 0.18 0.16 0.14 0.12 0.12 0.10 0.10 0.09 0.09 0.09 0.09 0.09 0.09 0.09 0.09 0.09 0.09 0.09
0.14 0.14 0.16 0.16 0.16 0.16 0.16 0.16 0.18 0.18 0.18 0.18 0.18 0.16 0.16 0.16 0.16 0.16 0.18 0.18 0.18 0.18 0.18 0.16 0.16 0.16 0.16 0.16 0.16 0.16 0.16 0.16 0.16 0.16 0.14 0.14 0.14 0.14 0.12 0.12 0.12 0.12 0.12 0.14 0.14 0.14 0.16 0.24 0.24 0.22 0.22 0.20 0.18 0.16 0.14 0.12 0.10 0.10 0.09 0.09 0.07 0.09 0.09 0.09 0.09 0.09 0.09 0.09 0.09
0.14 0.16 0.16 0.16 0.16 0.16 0.16 0.16 0.18 0.18 0.18 0.18 0.18 0.18 0.18 0.16 0.16 0.16 0.16 0.18 0.18 0.18 0.18 0.18 0.18 0.16 0.16 0.16 0.16 0.16 0.16 0.18 0.16 0.16 0.16 0.16 0.14 0.14 0.14 0.12 0.12 0.12 0.14 0.14 0.14 0.14 0.16 0.16 0.22 0.22 0.22 0.20 0.18 0.16 0.14 0.12 0.12 0.10 0.09 0.09 0.09 0.07 0.07 0.09 0.09 0.09 0.09 0.09 0.09
0.16 0.16 0.16 0.16 0.16 0.16 0.16 0.16 0.18 0.18 0.18 0.18 0.18 0.18 0.18 0.18 0.18 0.18 0.18 0.18 0.18 0.18 0.18 0.18 0.18 0.18 0.18 0.18 0.18 0.18 0.18 0.18 0.18 0.16 0.16 0.16 0.16 0.14 0.14 0.14 0.12 0.14 0.14 0.14 0.14 0.16 0.16 0.16 0.20 0.22 0.22 0.20 0.18 0.16 0.14 0.12 0.12 0.10 0.10 0.09 0.09 0.09 0.07 0.07 0.09 0.09 0.09 0.09 0.10
0.16 0.16 0.16 0.16 0.16 0.16 0.16 0.16 0.18 0.18 0.18 0.18 0.18 0.18 0.18 0.18 0.18 0.18 0.18 0.18 0.18 0.18 0.18 0.18 0.18 0.18 0.18 0.18 0.18 0.18 0.18 0.18 0.18 0.18 0.18 0.16 0.16 0.14 0.14 0.14 0.14 0.14 0.14 0.14 0.16 0.16 0.16 0.18 0.20 0.22 0.24 0.20 0.20 0.18 0.16 0.14 0.10 0.10 0.10 0.09 0.09 0.09 0.07 0.07 0.09 0.09 0.09 0.10 0.10
0.16 0.16 0.16 0.16 0.16 0.16 0.16 0.16 0.18 0.18 0.18 0.18 0.18 0.18 0.20 0.18 0.18 0.18 0.18 0.18 0.18 0.18 0.18 0.18 0.18 0.18 0.18 0.18 0.18 0.18 0.18 0.18 0.18 0.18 0.18 0.18 0.16 0.16 0.14 0.14 0.14 0.14 0.14 0.14 0.16 0.16 0.18 0.18 0.20 0.22 0.24 0.22 0.20 0.18 0.16 0.12 0.10 0.10 0.10 0.10 0.09 0.09 0.09 0.07 0.09 0.09 0.09 0.09 0.10
0.16 0.16 0.16 0.16 0.16 0.16 0.16 0.16 0.16 0.18 0.18 0.18 0.18 0.20 0.20 0.20 0.20 0.20 0.20 0.20 0.18 0.18 0.18 0.18 0.18 0.18 0.18 0.18 0.18 0.18 0.18 0.18 0.18 0.18 0.18 0.16 0.16 0.16 0.16 0.16 0.14 0.14 0.14 0.16 0.16 0.16 0.18 0.18 0.20 0.22 0.24 0.22 0.20 0.20 0.18 0.14 0.12 0.10 0.10 0.10 0.10 0.09 0.09 0.09 0.09 0.09 0.09 0.09 0.10
0.16 0.16 0.16 0.16 0.16 0.16 0.16 0.16 0.16 0.18 0.18 0.18 0.18 0.20 0.20 0.20 0.20 0.20 0.20 0.20 0.20 0.18 0.18 0.18 0.18 0.18 0.18 0.18 0.18 0.18 0.18 0.18 0.18 0.18 0.16 0.16 0.16 0.16 0.16 0.16 0.16 0.16 0.16 0.16 0.16 0.16 0.16 0.18 0.18 0.20 0.22 0.22 0.20 0.20 0.18 0.16 0.12 0.12 0.10 0.10 0.10 0.09 0.09 0.09 0.09 0.09 0.09 0.09 0.10
0.16 0.16 0.16 0.16 0.16 0.16 0.16 0.16 0.16 0.18 0.18 0.18 0.18 0.20 0.20 0.20 0.20 0.20 0.20 0.20 0.20 0.20 0.20 0.20 0.18 0.20 0.20 0.20 0.18 0.18 0.18 0.18 0.18 0.18 0.18 0.16 0.16 0.16 0.16 0.16 0.16 0.16 0.16 0.16 0.16 0.16 0.16 0.18 0.18 0.20 0.22 0.22 0.22 0.20 0.16 0.14 0.12 0.12 0.12 0.12 0.10 0.10 0.09 0.09 0.09 0.09 0.09 0.09 0.09
0.16 0.16 0.16 0.16 0.16 0.16 0.16 0.16 0.16 0.18 0.18 0.18 0.18 0.20 0.20 0.20 0.20 0.20 0.20 0.20 0.20 0.20 0.20 0.20 0.20 0.20 0.20 0.20 0.20 0.20 0.18 0.18 0.18 0.18 0.18 0.18 0.18 0.18 0.16 0.16 0.16 0.16 0.16 0.16 0.18 0.18 0.18 0.18 0.18 0.20 0.22 0.24 0.22 0.18 0.14 0.12 0.12 0.12 0.12 0.12 0.12 0.10 0.09 0.09 0.09 0.09 0.09 0.10 0.10
Wind_Speed
48 48 47 47 47 47 47 47 47 48 48 49 49 49 49 48 48 47 45 43 42 43 45 46 47 47 46 45 44 43 42 42 41 41 40 40 40 40 40 40 39 37 35 33 32 30 28 26 24 22 19 17 15 14 12 11 10 9 8 8 8 9 9 10 10 10 11 12 12
47 47 47 47 47 47 47 47 47 47 48 49 49 49 49 48 47 47 45 43 42 43 45 46 47 47 46 45 44 42 42 41 41 40 40 40 40 40 40 39 38 37 35 33 31 28 26 25 23 21 19 17 15 13 11 9 8 7 7 7 6 6 7 7 8 8 9 10 10
47 47 47 47 47 47 46 46 46 47 48 48 49 49 49 48 47 47 46 44 43 43 45 46 46 46 46 45 43 42 41 41 40 40 39 39 39 39 39 39 38 37 34 32 29 27 25 24 22 20 18 16 14 12 10 9 7 6 5 5 5 5 5 5 6 7 7 8 9
46 46 46 46 46 46 46 46 46 47 47 48 48 49 48 48 47 47 46 45 44 43 44 45 46 46 45 44 43 42 41 40 39 39 38 38 38 38 39 38 38 36 34 31 29 27 25 23 21 19 17 16 14 13 11 9 7 6 5 5 4 4 4 4 4 5 5 7 8
46 46 46 46 46 46 46 46 46 46 47 48 48 48 48 48 47 47 47 46 44 44 44 45 45 45 44 44 43 42 41 40 39 38 38 37 37 37 38 37 37 36 34 31 29 27 25 23 21 19 17 16 15 13 11 10 8 7 6 5 5 4 4 3 3 3 4 6 7
46 46 46 46 46 46 46 45 46 46 47 47 48 48 48 47 47 47 46 46 45 44 44 44 44 44 44 43 42 41 40 40 39 38 37 36 36 36 36 36 36 35 33 31 29 27 25 23 21 20 18 16 15 13 12 10 9 8 7 6 6 5 4 3 3 3 4 6 7
45 46 46 46 46 45 45 45 45 46 46 47 47 48 48 47 47 47 46 46 46 45 44 44 44 44 44 43 42 40 40 39 38 38 37 35 35 35 35 35 35 34 33 31 30 28 26 23 21 20 18 17 15 13 12 11 10 9 8 7 6 5 4 3 3 3 4 5 6
45 45 45 45 45 45 45 45 45 46 46 47 47 47 48 47 47 47 46 46 46 45 44 43 43 43 43 42 41 40 39 38 37 37 36 35 34 34 34 34 34 33 32 31 29 28 26 24 22 20 19 17 15 14 13 12 10 9 8 7 7 6 4 3 3 3 4 4 5
45 45 45 45 45 45 45 44 45 45 46 46 47 47 48 47 47 47 46 46 46 45 45 44 43 43 42 41 40 39 38 37 36 36 35 34 33 33 33 33 33 32 31 30 29 28 26 24 22 20 18 17 15 14 13 12 11 10 9 8 7 6 5 4 4 4 4 4 4
45 45 45 45 45 45 44 44 45 45 46 46 47 47 47 47 47 46 46 45 45 45 45 44 43 43 42 40 39 38 37 37 35 35 34 33 32 32 32 32 32 31 30 30 28 27 25 23 21 20 18 17 16 15 14 13 12 11 10 9 8 7 6 5 5 4 4 4 4
44 44 44 44 44 44 44 44 44 45 45 46 47 47 47 47 47 46 46 46 46 45 45 44 43 42 41 40 38 38 37 36 35 34 33 32 31 31 31 31 31 30 30 29 28 26 25 23 21 20 19 18 17 16 15 14 13 11 10 9 9 8 7 6 5 5 5 5 5
44 44 44 44 44 44 44 44 44 44 45 46 47 47 47 47 47 47 46 46 46 45 45 45 44 42 41 39 38 37 36 36 35 34 32 32 31 30 30 30 30 30 29 29 27 25 24 23 21 20 19 18 17 16 15 14 13 12 11 10 9 8 7 7 6 6 5 5 5
44 44 44 44 44 44 43 43 44 44 45 46 46 47 47 47 47 46 46 46 46 45 45 45 43 42 41 40 38 37 36 35 34 33 32 31 30 29 29 29 29 29 28 28 27 25 23 22 21 20 19 18 17 16 16 15 13 13 12 11 10 9 8 8 7 7 6 6 6
44 44 44 44 44 43 43 43 43 44 44 45 46 47 47 47 46 46 46 46 46 45 45 44 43 42 41 40 39 37 35 34 33 32 31 31 30 29 28 27 28 28 27 28 27 25 23 22 21 20 19 19 17 17 16 15 14 13 12 12 11 10 9 9 8 8 8 8 8
43 43 43 43 43 43 43 43 43 43 44 45 46 46 46 46 46 46 46 46 46 45 45 44 43 42 42 41 39 37 36 34 33 32 31 30 29 29 27 27 26 26 26 26 26 25 23 22 21 20 19 18 18 17 16 15 15 14 13 12 12 11 10 10 9 9 9 9 9
43 43 43 43 43 43 43 43 43 43 44 45 45 46 46 46 46 46 46 46 46 45 45 44 43 42 42 41 40 38 36 34 33 32 31 30 29 28 27 26 25 25 25 25 25 24 23 22 20 19 19 18 17 16 16 15 15 14 13 12 12 11 11 10 10 10 10 9 9
43 43 43 43 43 43 43 43 43 43 44 44 45 46 46 46 46 46 46 46 46 45 44 43 42 42 42 41 41 39 37 35 33 31 30 30 29 28 27 26 25 24 23 23 24 23 22 21 20 19 18 18 17 16 16 15 15 15 14 13 12 11 11 10 10 10 10 10 10
42 43 43 43 42 42 42 42 43 43 43 44 45 45 45 46 46 45 46 46 45 45 44 43 42 42 41 41 41 39 37 35 33 32 30 29 29 28 27 26 25 23 22 21 22 22 22 21 20 19 18 18 17 16 15 15 15 15 14 14 13 12 11 11 11 10 10 10 10
42 42 42 42 42 42 42 42 42 43 43 44 44 45 45 45 45 45 45 45 45 45 44 43 42 41 41 41 41 39 38 36 34 33 31 30 29 28 27 26 25 23 22 21 21 21 21 21 20 19 18 18 17 16 16 15 15 15 14 14 13 13 12 12 12 11 11 11 11
42 42 42 42 42 42 42 42 42 42 43 43 44 44 44 45 45 45 45 45 45 44 43 42 42 41 41 41 41 40 38 37 35 34 32 31 29 28 27 26 25 24 22 20 20 21 21 20 20 19 19 18 17 17 16 16 15 15 15 14 14 13 13 13 13 12 13 13 13
42 42 42 42 42 42 42 42 42 42 42 43 43 43 44 44 44 44 45 45 45 44 43 42 41 41 41 41 41 40 39 37 35 34 33 32 30 29 28 26 25 24 22 21 20 21 21 20 20 19 19 18 17 17 16 16 16 15 15 15 14 14 14 13 13 13 13 14 14
41 41 42 42 42 42 42 42 42 42 42 42 42 43 43 43 44 44 44 44 44 44 43 42 41 41 41 40 40 40 39 37 36 35 33 32 31 30 29 28 26 25 23 21 20 20 21 21 20 20 19 19 18 17 17 16 16 16 15 15 15 15 14 14 14 14 14 14 14
41 41 41 41 42 42 42 42 42 42 42 42 42 42 42 43 43 43 44 44 44 43 43 42 41 41 40 40 40 40 39 38 36 35 34 33 31 31 30 29 27 26 24 21 19 19 21 21 21 20 20 19 19 18 17 17 16 16 16 16 16 15 15 15 14 14 14 14 15
40 41 41 41 41 42 42 42 41 41 41 41 41 42 42 42 42 43 43 43 43 43 42 42 41 41 40 40 40 40 40 39 37 36 35 33 32 31 30 29 28 26 24 22 19 19 20 21 21 21 21 20 19 19 18 18 17 17 17 17 17 16 16 16 15 15 15 14 15
40 40 41 41 41 41 41 41 41 41 41 41 41 41 41 42 42 42 42 43 43 43 42 42 41 41 41 40 40 40 40 39 38 37 35 34 32 31 30 29 28 27 25 23 21 20 20 21 21 21 22 21 21 20 19 19 18 18 18 17 17 17 17 17 16 16 15 15 15
40 40 40 41 41 41 41 41 41 41 41 41 41 41 41 41 41 41 42 42 42 42 42 42 41 41 41 40 40 40 40 39 38 37 36 35 33 32 30 29 28 27 27 26 23 22 22 21 22 22 22 22 22 22 21 20 19 19 18 18 18 18 18 17 17 17 16 15 15
39 40 40 40 41 41 41 41 41 41 41 41 41 41 40 40 41 41 41 41 42 42 42 41 41 41 41 40 40 40 39 39 39 38 37 36 34 32 31 29 28 27 27 28 26 24 23 22 22 23 23 23 23 22 22 21 21 20 19 19 18 18 18 18 17 17 17 16 16
39 39 40 40 41 41 41 41 41 41 41 41 41 40 40 40 40 40 40 41 41 41 41 41 41 41 40 40 40 40 39 39 39 38 37 36 35 33 32 30 29 28 27 28 28 26 24 22 23 23 23 23 23 23 23 22 21 21 20 19 19 19 18 18 18 17 17 17 16
39 39 40 40 40 40 41 41 41 41 40 40 40 40 40 40 40 40 40 40 41 41 41 41 41 41 40 40 40 39 39 39 38 38 37 37 36 35 33 32 30 29 28 28 28 28 26 23 23 23 24 24 24 24 23 22 22 21 20 20 19 19 19 18 18 18 17 17 17
39 39 39 40 40 40 40 40 40 40 40 40 40 40 40 40 39 39 40 40 40 40 40 40 40 40 40 40 40 39 39 39 38 38 37 37 36 35 34 33 32 31 30 29 28 29 28 25 23 24 24 25 25 24 24 23 22 22 21 20 20 20 19 19 19 18 18 17 17
39 39 39 39 40 40 40 40 40 40 40 40 40 40 40 40 39 39 39 39 39 40 40 40 40 40 40 40 39 39 39 39 38 38 38 37 36 36 35 34 33 32 31 30 29 29 28 26 24 24 24 25 25 25 25 24 23 23 22 21 21 20 20 19 19 19 18 18 17
38 39 39 39 39 40 40 40 40 40 40 40 40 39 39 39 39 39 39 39 39 39 39 40 40 40 40 40 39 39 39 39 39 38 38 37 37 36 35 34 33 32 32 32 30 29 29 28 25 24 24 25 25 26 26 26 25 24 23 22 21 21 20 20 19 19 19 18 18
38 38 38 39 39 39 40 40 40 40 40 39 39 39 39 39 39 39 39 39 39 39 39 39 39 40 40 40 39 39 39 39 39 39 38 38 37 36 36 35 34 33 33 32 31 30 29 29 26 24 24 25 25 26 27 27 26 25 24 23 22 21 21 20 20 19 19 18 18
38 38 38 38 39 39 39 39 39 39 39 39 39 39 39 39 39 39 39 39 39 38 39 39 39 39 39 39 39 39 39 39 39 39 38 38 38 37 36 35 34 34 34 33 32 31 30 29 27 25 24 24 25 26 27 27 27 26 25 24 23 22 21 21 20 19 19 18 17
37 38 38 38 38 39 39 39 39 39 39 39 39 39 39 39 39 38 38 38 38 38 38 38 38 38 39 39 39 38 39 38 38 38 38 38 38 38 37 36 35 35 35 34 33 31 30 29 28 26 24 24 25 26 27 28 28 27 26 25 24 23 22 21 20 19 18 17 16
37 37 37 38 38 38 39 39 39 39 39 39 39 39 39 39 38 38 38 38 38 38 38 38 38 38 39 39 39 38 38 38 38 38 38 38 38 38 37 37 36 36 35 35 34 32 31 30 29 27 25 24 25 26 27 28 28 28 26 25 24 23 23 22 21 20 18 17 16
36 37 37 37 38 38 38 38 39 39 39 39 39 39 39 38 38 38 38 38 38 38 38 38 38 38 39 39 39 38 38 38 38 38 38 38 38 38 38 37 36 36 36 35 34 33 32 30 29 28 26 24 25 26 27 28 29 28 27 25 24 24 23 22 21 20 19 17 15
36 36 37 37 37 38 38 38 38 39 39 39 39 39 38 38 38 38 38 38 38 38 38 38 38 38 38 39 39 39 38 38 38 38 38 38 38 38 38 37 37 36 36 36 35 34 32 31 30 29 27 24 24 26 27 29 29 28 27 26 25 24 23 22 21 20 18 17 15
36 36 36 36 37 37 37 38 38 38 38 38 38 38 38 38 38 38 38 38 38 38 38 38 38 38 38 39 39 39 39 39 38 38 38 38 38 38 38 37 37 37 37 36 36 35 33 32 31 30 28 24 24 26 27 29 29 28 27 26 25 24 24 23 21 20 18 17 15
35 35 36 36 36 37 37 37 37 38 38 38 38 38 38 38 38 38 38 38 38 38 38 38 38 38 38 38 39 39 39 39 39 38 38 38 38 38 38 37 37 37 37 37 37 36 35 33 32 31 29 25 24 25 27 28 28 27 26 25 25 24 24 23 22 20 18 16 15
35 35 35 35 36 36 36 37 37 37 38 38 38 38 38 38 38 38 38 38 38 38 38 38 38 38 38 38 38 38 38 39 39 39 39 38 38 38 38 37 37 37 38 38 38 37 36 34 33 32 30 27 25 26 27 27 27 26 25 25 24 24 24 23 22 20 18 17 15
Wind_Direction
347 347 347 347 347 347 347 348 348 349 349 350 350 350 350 350 349 349 349 348 348 348 349 350 351 351 351 351 351 350 349 349 349 349 349 348 348 349 350 351 350 349 348 347 347 347 346 346 345 344 342 339 334 328 322 315 307 297 286 275 266 260 257 255 253 250 247 245 242
347 347 347 347 347 348 348 349 349 350 350 350 350 350 350 350 350 350 349 349 348 349 350 351 351 352 352 352 351 351 351 351 351 351 351 351 351 352 353 354 354 352 351 351 351 352 352 353 353 353 352 350 346 341 336 329 320 308 295 284 274 267 262 260 256 252 248 246 243
348 348 348 348 348 349 349 350 350 350 350 351 351 351 351 351 351 351 350 349 349 349 350 351 352 352 352 353 353 353 353 353 353 353 353 353 353 354 355 357 357 356 355 355 356 356 356 357 358 359 360 359 357 353 349 343 336 326 312 300 291 283 276 270 262 254 249 246 245
348 348 348 348 349 349 350 350 350 351 351 351 352 352 352 351 351 351 351 350 350 350 351 352 352 353 353 353 354 354 355 355 355 355 355 355 355 356 358 359 360 360 359 359 359 359 358 359 1 3 3 3 2 1 359 356 352 345 337 327 319 309 298 285 270 257 251 249 249
348 349 349 349 349 350 350 351 351 351 352 352 352 352 352 352 352 352 352 352 351 351 351 352 352 353 353 354 355 356 357 357 357 357 357 357 358 358 359 1 2 3 3 3 3 2 1 1 3 5 6 5 5 5 5 4 1 356 351 346 341 333 324 310 289 270 259 256 255
349 349 349 350 350 351 351 351 352 352 352 353 353 353 353 353 352 352 353 353 352 351 351 352 353 353 353 354 355 357 358 359 359 359 359 359 360 0 1 2 4 5 6 7 7 7 6 6 7 8 9 9 9 9 10 9 7 4 1 360 359 357 352 341 319 289 272 266 265
349 349 350 350 351 351 351 352 352 352 353 353 353 353 353 353 353 353 353 353 353 353 352 353 353 353 353 354 356 357 358 359 360 0 1 1 1 2 2 4 5 6 7 9 11 11 11 11 12 13 14 15 16 17 18 18 17 16 15 16 16 15 9 354 328 301 287 281 277
350 350 350 351 351 352 352 352 353 353 353 354 354 354 354 353 353 353 353 354 354 354 353 353 353 353 353 354 356 357 357 358 359 1 2 2 3 3 4 5 6 7 8 11 13 15 16 17 19 20 21 23 26 27 28 28 27 26 26 26 25 22 15 359 338 320 309 301 294
350 350 351 351 352 352 352 353 353 353 354 354 354 354 354 354 354 354 354 355 355 355 354 354 354 354 354 354 355 356 357 358 359 0 2 3 4 4 5 6 7 8 9 11 13 16 19 22 24 26 28 30 32 34 34 33 32 30 29 28 26 23 16 5 352 341 333 326 317
350 351 351 352 352 353 353 353 353 354 354 354 355 355 355 355 355 355 355 355 355 355 355 355 354 354 354 355 355 356 357 357 358 360 2 4 5 5 6 7 8 8 9 11 13 16 19 24 28 31 33 34 34 34 34 33 31 29 28 27 25 21 15 10 3 357 351 345 336
351 351 352 352 353 353 353 353 354 354 354 355 355 355 355 355 355 355 355 355 356 356 356 356 356 355 355 355 355 356 356 356 357 359 1 3 5 6 7 7 8 9 9 10 12 15 19 22 27 32 34 34 34 33 32 30 29 27 25 24 21 18 16 13 10 5 358 349 339
351 352 352 353 353 353 354 354 354 354 355 355 356 356 356 356 356 356 356 356 356 356 357 357 357 356 356 356 356 356 356 356 357 358 0 3 4 6 7 8 9 9 9 10 12 14 17 20 24 28 31 32 32 30 29 28 27 25 23 22 21 19 18 15 12 7 1 351 341
351 352 353 353 353 354 354 354 354 355 355 356 356 357 357 357 357 357 357 357 357 357 357 358 358 357 357 357 356 356 356 356 356 358 0 2 4 5 7 8 9 10 10 10 11 13 15 17 20 22 25 26 27 26 26 25 25 24 22 21 20 20 18 16 12 9 4 358 349
352 352 353 353 354 354 354 354 355 355 356 356 357 357 357 357 357 357 358 358 358 358 358 358 359 359 358 358 357 357 356 356 356 357 359 1 3 5 6 8 9 10 10 10 10 11 13 15 16 18 19 20 21 21 22 22 23 22 21 19 17 16 14 11 8 6 3 359 352
352 353 353 354 354 354 355 355 355 356 356 356 357 357 358 358 358 358 358 358 358 358 358 359 359 359 359 359 359 358 357 357 356 357 358 360 2 3 5 6 8 10 11 11 10 10 10 12 13 15 16 16 17 18 18 19 20 20 18 16 13 10 7 4 1 359 356 353 347
353 353 354 354 354 355 355 355 355 356 356 357 357 358 358 359 359 359 359 359 359 359 359 360 0 0 0 0 0 360 359 358 357 356 357 358 360 2 3 4 6 8 9 11 10 10 9 9 10 12 13 14 14 14 15 16 16 16 14 12 8 5 1 358 355 352 349 345 340
353 353 354 354 355 355 355 355 356 356 357 357 358 358 359 359 359 360 360 360 360 360 0 0 1 1 1 1 2 1 0 359 358 357 356 357 358 359 1 2 3 5 7 9 10 10 9 8 7 8 9 10 10 10 10 11 11 10 9 7 4 1 357 354 351 348 344 340 334
353 354 354 355 355 355 355 355 356 356 357 357 358 358 359 360 360 0 1 1 1 1 1 1 1 2 2 2 2 2 2 1 359 358 356 356 357 358 359 360 1 2 4 6 9 10 10 8 6 5 5 5 5 5 5 5 5 4 3 2 0 358 354 351 348 344 340 336 330
354 354 355 355 355 355 355 356 356 356 357 357 358 359 359 360 0 1 1 2 2 2 2 2 2 2 2 3 3 3 3 2 1 359 358 356 356 357 357 358 358 359 0 2 6 8 9 8 6 5 3 2 1 1 0 0 360 360 359 358 356 354 352 348 345 342 338 334 327
354 355 355 355 355 355 356 356 356 357 357 358 358 359 359 0 1 2 2 2 2 3 3 3 3 3 3 3 3 4 4 4 3 1 360 358 357 357 357 357 357 357 357 358 1 4 6 6 5 4 2 1 359 358 357 357 356 356 355 353 351 349 347 344 341 338 336 332 327
354 355 355 355 356 356 356 356 357 357 357 358 358 359 360 0 1 2 3 3 3 3 4 4 4 4 4 3 4 4 4 4 4 3 2 1 359 359 358 357 357 357 356 356 358 1 3 4 3 2 0 359 357 356 354 353 353 352 351 349 347 344 342 339 337 334 332 329 326
354 355 355 356 356 356 357 357 357 358 358 358 359 359 360 1 1 2 3 3 4 4 4 5 5 4 4 4 4 4 5 5 5 4 3 3 2 2 1 360 359 358 357 356 356 358 359 1 0 359 358 356 355 353 351 350 349 347 346 345 343 340 338 336 333 330 328 326 323
355 355 356 356 356 357 357 357 358 358 358 359 359 360 0 1 1 2 3 4 5 5 5 5 5 5 5 5 5 5 5 5 5 4 4 4 5 4 4 3 1 360 358 358 357 357 357 357 357 356 355 354 353 351 349 347 345 343 342 340 339 337 335 333 331 328 325 323 321
355 355 356 356 357 357 358 358 359 359 359 359 360 -0 0 1 2 2 3 4 5 5 6 6 6 6 6 6 5 5 5 5 5 4 4 5 6 6 6 6 4 2 360 360 0 359 357 356 355 354 353 352 351 349 347 345 342 340 338 337 335 333 332 330 329 327 324 321 319
355 356 356 356 357 357 358 359 359 359 360 360 0 0 1 1 2 3 4 4 5 6 6 6 6 6 6 6 6 6 6 6 5 4 4 4 5 6 6 6 5 3 1 360 1 2 0 358 355 353 352 350 349 347 345 343 341 338 336 334 332 331 329 328 326 325 323 321 318
356 356 356 357 357 358 358 359 359 360 360 0 0 1 1 1 2 3 3 4 5 6 6 7 7 7 7 7 7 6 6 6 6 5 4 4 4 4 5 5 4 3 2 359 357 359 1 0 358 356 353 351 349 347 345 343 341 338 335 332 330 329 327 326 324 323 321 320 318
356 356 357 357 357 358 358 359 360 360 0 1 1 1 1 2 2 3 3 4 5 6 7 7 7 7 7 7 7 7 7 6 6 5 5 4 3 3 2 2 1 1 359 357 355 356 359 1 360 358 356 353 351 348 346 344 341 339 336 333 330 328 327 325 323 321 320 318 316
356 356 357 357 358 358 359 359 360 0 1 1 1 1 2 2 2 3 3 4 5 6 7 7 7 7 7 7 7 7 7 6 6 6 5 4 3 2 1 0 359 358 356 354 353 354 356 359 360 359 357 355 353 350 348 346 344 341 338 336 333 330 328 325 323 321 319 318 316
356 357 357 357 358 358 359 359 360 0 1 1 2 2 2 2 3 3 3 4 5 6 6 7 7 7 8 7 7 7 7 7 6 6 5 4 3 2 1 -0 359 357 355 353 352 352 353 356 358 358 358 356 354 353 351 349 347 344 342 339 336 334 331 328 325 323 320 318 317
357 357 357 358 358 358 359 360 0 1 1 2 2 2 2 3 3 3 4 4 5 5 6 6 7 7 7 7 7 7 7 7 7 6 6 5 3 2 1 1 0 359 357 354 352 351 352 354 356 357 357 357 356 355 354 352 350 348 345 343 340 337 334 331 329 326 323 321 318
357 357 358 358 358 359 359 360 0 1 1 2 2 3 3 3 3 4 4 4 5 5 6 6 6 7 7 7 7 7 7 7 7 7 6 5 4 3 2 2 2 1 360 357 354 353 353 354 354 355 357 357 358 357 356 355 354 351 349 346 343 341 337 334 332 329 326 324 321
357 357 358 358 358 359 359 360 0 1 2 2 2 3 3 3 3 4 4 4 5 5 6 6 6 6 6 7 7 7 7 7 7 7 7 6 6 5 4 3 3 2 1 359 357 355 354 354 354 355 356 358 358 358 358 357 356 354 351 349 346 343 340 337 334 331 329 326 324
357 358 358 358 359 359 360 0 1 1 2 2 3 3 3 3 3 4 4 5 5 6 6 6 6 6 6 6 6 7 7 7 7 7 7 7 6 6 5 5 4 3 2 360 358 357 355 355 355 356 357 358 358 358 358 358 357 355 353 351 349 347 344 341 338 334 332 329 327
357 358 358 358 359 359 360 0 1 1 2 2 3 3 4 4 4 4 4 5 5 6 6 6 6 6 6 6 6 6 6 7 7 7 7 7 7 6 6 6 5 4 2 1 360 358 357 355 356 356 357 358 358 357 358 358 357 356 355 353 352 350 348 346 343 339 336 333 331
358 358 358 359 359 359 360 0 1 2 2 2 3 3 4 4 4 4 4 4 5 5 6 6 6 6 6 6 6 6 6 6 7 7 7 7 7 7 6 6 5 4 3 2 1 359 357 356 355 355 356 357 357 357 357 358 357 357 356 355 354 354 353 351 349 346 343 339 336
358 358 358 359 359 359 360 1 1 2 2 3 3 3 4 4 4 4 4 4 5 5 6 6 6 6 6 6 6 6 6 6 6 6 7 7 7 7 6 6 5 4 4 3 2 1 359 356 355 354 354 356 357 357 357 358 358 357 357 357 357 357 356 356 354 353 350 346 343
358 358 358 359 359 359 0 1 1 2 2 3 3 3 4 4 4 4 5 5 5 5 6 6 6 6 6 6 6 6 6 6 6 6 6 7 7 7 7 6 6 6 5 4 3 2 360 358 355 354 355 355 357 357 357 358 358 358 358 358 359 359 359 359 359 357 355 352 349
358 358 358 359 359 360 0 1 2 2 2 3 3 3 4 4 4 5 5 5 5 5 6 6 6 6 6 6 6 6 6 6 6 6 6 6 7 7 7 7 7 7 6 5 4 3 1 359 357 356 356 357 358 358 358 358 358 359 359 359 0 1 2 2 2 1 360 357 355
358 358 359 359 359 360 0 1 2 2 3 3 3 3 4 4 4 5 5 5 5 6 6 6 7 7 7 6 6 6 6 6 6 6 6 6 7 7 7 7 7 8 7 7 6 4 3 1 359 358 358 359 359 358 358 358 359 359 360 0 1 2 4 5 5 5 4 2 360
358 358 359 359 359 360 0 1 2 2 3 3 3 4 4 4 4 5 5 5 6 6 6 7 7 7 7 7 7 7 7 7 7 7 7 7 7 7 7 8 8 8 8 8 7 6 5 3 2 1 1 2 1 360 358 358 360 0 1 1 2 3 5 7 8 8 8 7 6
358 358 359 359 359 360 0 1 1 2 3 3 4 4 4 4 4 5 5 5 6 6 7 7 7 8 8 8 8 8 8 8 8 8 8 8 8 8 8 8 8 8 8 8 8 7 7 6 5 4 4 5 5 2 360 0 2 2 3 3 4 5 6 8 10 11 12 13 12